120 
ASUS46 KSEW 170610
RWRWA 

WASHINGTON REGIONAL WEATHER ROUNDUP
NATIONAL WEATHER SERVICE SEATTLE WA
1000 PM PST MON JAN 16 2017

NOTE:"FAIR" INDICATES FEW OR NO CLOUDS BELOW 12,000 FEET WITH NO 
SIGNIFICANT WEATHER AND/OR OBSTRUCTIONS TO VISIBILITY.

WAZ507-509-555>559-170700-
SEATTLE, TACOMA, EVERETT, AND VICINITY
  
CITY           SKY/WX    TMP DP  RH WIND       PRES   REMARKS
EVERETT        CLOUDY    46  26  45 SE15G22   29.95S                  
6HR MIN TEMP:  45; 6HR MAX TEMP:  47;                                

BOEING FIELD   CLOUDY    45  30  55 SE3       29.97F                  
6HR MIN TEMP:  42; 6HR MAX TEMP:  47;                                

RENTON         CLOUDY    45  26  47 CALM      29.97F                  
6HR MIN TEMP:  43; 6HR MAX TEMP:  46;                                

SEATAC AIRPORT CLOUDY    44  28  53 S3        29.97S                  
6HR MIN TEMP:  42; 6HR MAX TEMP:  45;                                

JBLM-MCCHORD   CLOUDY    39  35  86 CALM      29.96F                  
6HR MIN TEMP:  39; 6HR MAX TEMP:  44; 6HR PCP: TRACE;                

PUYALLUP         N/A     41  36  81 CALM      29.95F                  
BREMERTON      CLOUDY    43  30  61 S7        29.99S                  
6HR MIN TEMP:  39; 6HR MAX TEMP:  46;                                

JBLM-FT LEWIS  CLOUDY    39  35  85 CALM      29.95F                  
6HR MIN TEMP:  38; 6HR MAX TEMP:  44;                                

TACOMA NARROWS CLOUDY    41  31  67 SW6       29.97F                  
6HR MIN TEMP:  40; 6HR MAX TEMP:  44;                                

$$
 
WAZ001-503-506-510-514-515-170700-
NORTH INTERIOR
  
CITY           SKY/WX    TMP DP  RH WIND       PRES   REMARKS
BELLINGHAM     CLOUDY    37  36  96 N7        29.91F                  
6HR MIN TEMP:  37; 6HR MAX TEMP:  42; 6HR PCP:  0.11;                

FRIDAY HARBOR  CLOUDY    45  35  68 E7        29.91F                  
6HR MIN TEMP:  42; 6HR MAX TEMP:  47; 6HR PCP: TRACE;                

EASTSOUND      CLOUDY    41  39  93 NE6       29.89F                  
PORT ANGELES   MOCLDY    36  35  96 CALM      29.88F                  
6HR MIN TEMP:  35; 6HR MAX TEMP:  41; 6HR PCP: TRACE;                

EDIZ HOOK      FAIR      41  37  84 SW3       29.89F                  
6HR MIN TEMP:  41; 6HR MAX TEMP:  43;                                

PORT TOWNSEND    N/A    N/A N/A N/A MISG        N/A                   
NAS WHIDBEY    CLOUDY    47  34  60 E17       29.93F                  
6HR MIN TEMP:  43; 6HR MAX TEMP:  50; 6HR PCP:  0.08;                

ARLINGTON      NOT AVBL                                               
BURLINGTON     CLOUDY    45  41  87 E8        29.92F                  
$$
 
WAZ020-022-039-040-504-511-512-170700-
SOUTHWEST INTERIOR
  
CITY           SKY/WX    TMP DP  RH WIND       PRES   REMARKS
SHELTON        CLOUDY    41  33  73 E5        29.94F                  
6HR MIN TEMP:  41; 6HR MAX TEMP:  46;                                

OLYMPIA        CLOUDY    38  29  70 SW6       29.96F                  
6HR MIN TEMP:  38; 6HR MAX TEMP:  42;                                

CHEHALIS       CLOUDY    37  28  70 S10G17    29.98F                  
KELSO          CLOUDY    29  21  72 SE15G22   30.05F WCI  18          
6HR MIN TEMP:  28; 6HR MAX TEMP:  31;                                

VANCOUVER      CLOUDY    26  16  65 S6        30.10F                  
6HR MIN TEMP:  26; 6HR MAX TEMP:  29;                                

SCAPPOOSE, OR  CLOUDY    28  18  66 S9        30.09F                  
6HR MIN TEMP:  28; 6HR MAX TEMP:  31;                                

PORTLAND, OR   CLOUDY    25  15  66 SE16      30.09F WCI  12          
6HR MIN TEMP:  25; 6HR MAX TEMP:  28;                                

$$
 
WAZ021-516-517-170700-
WASHINGTON COAST
  
CITY           SKY/WX    TMP DP  RH WIND       PRES   REMARKS
FORKS          CLOUDY    51  29  42 SE12G21   29.83F                  
6HR MIN TEMP:  42; 6HR MAX TEMP:  52; 6HR PCP:  0.08;                

HOQUIAM        CLOUDY    41  34  76 E9        29.92F                  
6HR MIN TEMP:  41; 6HR MAX TEMP:  46;                                

ASTORIA, OR    PTCLDY    41  27  57 E6        29.93F                  
6HR MIN TEMP:  40; 6HR MAX TEMP:  47;                                

$$
 
WAZ019-023-024-040-567>569-170700-
CASCADE MOUNTAINS AND COLUMBIA GORGE
  
CITY           SKY/WX    TMP DP  RH WIND       PRES   REMARKS
STAMPEDE PASS  NOT AVBL                                               
TROUTDALE, OR  CLOUDY    24  14  65 E33G47    30.09F WCI   6          
6HR MIN TEMP:  24; 6HR MAX TEMP:  26;                                

THE DALLES, OR CLOUDY    13   8  81 E6        30.39F                  
6HR MIN TEMP:  11; 6HR MAX TEMP:  17;                                

$$

WAZ026-027-041>044-520-521-170700-
EAST SLOPES
  
CITY           SKY/WX    TMP DP  RH WIND       PRES   REMARKS
OMAK           CLOUDY    18  10  71 CALM      30.28S                  
6HR MIN TEMP:  15; 6HR MAX TEMP:  21;                                

WENATCHEE      MOCLDY    12   9  87 E8        30.29F                  
6HR MIN TEMP:  12; 6HR MAX TEMP:  13;                                

ELLENSBURG     CLOUDY    14   7  73 MISG      30.23F                  
6HR MIN TEMP:   9; 6HR MAX TEMP:  15; 6HR PCP: TRACE;                

YAKIMA         MOCLDY    14   8  77 CALM      30.31F HAZE             
6HR MIN TEMP:  11; 6HR MAX TEMP:  17;                                

$$

WAZ028-034-035-170700-
COLUMBIA BASIN
  
CITY           SKY/WX    TMP DP  RH WIND       PRES   REMARKS
EPHRATA        CLOUDY     9   2  73 E5        30.29F                  
6HR MIN TEMP:   3; 6HR MAX TEMP:  11;                                

MOSES LAKE     CLOUDY     7   3  84 CALM      30.32F                  
6HR MIN TEMP:   5; 6HR MAX TEMP:  12; 6HR PCP: TRACE;                

PASCO          CLOUDY     4   2  91 N5        30.40S                  
6HR MIN TEMP:   2; 6HR MAX TEMP:  13;                                

HERMISTON, OR  CLEAR      3   0  87 CALM      30.36S                  
6HR MIN TEMP:   1; 6HR MAX TEMP:  13;                                

$$

WAZ036>038-170700-
NORTHEAST WASHINGTON
  
CITY           SKY/WX    TMP DP  RH WIND       PRES   REMARKS
SPOKANE GEIGER PTCLDY    10   7  87 W5        30.17R FOG              
6HR MIN TEMP:   7; 6HR MAX TEMP:  17;                                

SPOKANE FELTS  MOCLDY    15  13  91 SW5       30.20F                  
6HR MIN TEMP:  13; 6HR MAX TEMP:  19;                                

FAIRCHILD AFB  CLOUDY    12  10  93 CALM      30.16S                  
6HR MIN TEMP:   6; 6HR MAX TEMP:  14;                                

COEURDALENE,ID PTCLDY    14  12  92 E8        30.17F                  
6HR MIN TEMP:  12; 6HR MAX TEMP:  21;                                

DEER PARK      PTCLDY    10   6  84 NW3       30.19F                  
6HR MIN TEMP:   4; 6HR MAX TEMP:  16;                                

$$

WAZ029>033-170700-
SOUTHEAST WASHINGTON
  
CITY           SKY/WX    TMP DP  RH WIND       PRES   REMARKS
PULLMAN        PTCLDY    22  14  71 E6        30.18F                  
6HR MIN TEMP:   8; 6HR MAX TEMP:  24;                                

LEWISTON, ID   PTCLDY    10   7  87 CALM      30.26F                  
6HR MIN TEMP:   8; 6HR MAX TEMP:  13;                                

WALLA WALLA    CLEAR      5   1  83 E3        30.29F                  
6HR MIN TEMP:   3; 6HR MAX TEMP:   7; 6HR PCP: TRACE;                

PENDLETON, OR  CLEAR      2   1  96 NE5       30.25F FOG              
6HR MIN TEMP:   1; 6HR MAX TEMP:   8;                                

$$